FW0285 Weather Reports


Display with metric or nautical units.
time (UTC)temp
F
wind
direction
speed
MPH
gust
MPH
rain 1hr
in
rain 24hr
in
rain mn
in
humidity
%
barometer
mb
20260507132800 55 317 0.0 0.0 0.00 0.00 0.00 87 1015.8
20260507131302 55 317 0.0 0.0 0.00 0.00 0.00 86 1015.7
20260507130448 55 317 0.0 0.0 0.00 0.00 0.00 86 1015.7
20260507124302 55 317 0.0 0.0 0.00 0.00 0.00 86 1015.6
20260507122800 56 317 0.0 0.0 0.00 0.00 0.00 86 1015.5
20260507121301 56 317 0.0 0.0 0.00 0.00 0.00 86 1015.5
20260507115801 56 317 0.0 0.0 0.00 0.00 0.00 86 1015.6
20260507114302 56 317 0.0 0.0 0.00 0.00 0.00 86 1015.8
20260507112802 56 317 0.0 0.0 0.00 0.00 0.00 86 1015.8
20260507111302 57 317 0.0 0.0 0.00 0.00 0.00 85 1016.0
20260507105800 57 317 0.0 0.0 0.00 0.00 0.00 85 1016.0
20260507104301 57 317 0.0 0.0 0.00 0.00 0.00 85 1016.0
20260507102801 58 317 0.0 0.0 0.00 0.00 0.00 85 1016.1
20260507101301 58 317 0.0 0.0 0.00 0.00 0.00 85 1016.1
20260507100503 58 317 0.0 0.0 0.00 0.00 0.00 84 1016.0
20260507094302 58 317 0.0 0.0 0.00 0.00 0.00 84 1016.2
20260507092802 59 317 0.0 0.0 0.00 0.00 0.00 84 1016.3
20260507091301 59 317 0.0 0.0 0.00 0.00 0.00 83 1016.5
20260507085801 59 317 0.0 0.0 0.00 0.00 0.00 83 1016.7
20260507084300 59 317 0.0 0.0 0.00 0.00 0.00 82 1016.8
20260507082803 59 317 0.0 0.0 0.00 0.00 0.00 82 1016.9
20260507081959 60 317 0.0 0.0 0.00 0.00 0.00 82 1017.0
20260507075801 60 317 0.0 0.0 0.00 0.00 0.00 82 1017.1
20260507074300 60 317 0.0 0.0 0.00 0.00 0.00 81 1017.0
20260507072800 60 317 0.0 0.0 0.00 0.00 0.00 81 1016.9
20260507071302 61 317 0.0 0.0 0.00 0.00 0.00 81 1017.0
20260507065803 61 317 0.0 0.0 0.00 0.00 0.00 80 1017.1
20260507065003 61 317 0.0 0.0 0.00 0.00 0.00 79 1017.2
20260507062803 61 317 0.0 0.0 0.00 0.00 0.00 79 1017.2
20260507061302 61 317 0.0 0.0 0.00 0.00 0.00 78 1017.2
20260507055759 62 317 0.0 0.0 0.00 0.00 0.00 77 1017.3
20260507054257 62 317 0.0 0.0 0.00 0.00 0.00 77 1017.2
20260507052755 62 317 0.0 0.0 0.00 0.00 0.00 76 1017.2
20260507052633 62 317 0.0 0.0 0.00 0.00 0.00 75 1017.2
20260507045751 62 317 0.0 0.0 0.00 0.00 0.00 75 1017.2
20260507044249 62 317 0.0 0.0 0.00 0.00 0.00 74 1017.1
20260507043446 63 317 0.0 1.0 0.00 0.00 0.00 73 1017.1
20260507041247 63 317 0.0 3.0 0.00 0.00 0.00 73 1017.0
20260507040435 63 355 1.0 3.0 0.00 0.00 0.00 72 1016.8
20260507034247 64 338 1.0 3.0 0.00 0.00 0.00 71 1016.7
20260507032746 64 279 1.0 3.0 0.00 0.00 0.00 70 1016.6
20260507031947 65 301 1.0 4.0 0.00 0.00 0.00 70 1016.6
20260507025745 66 323 1.0 4.0 0.00 0.00 0.00 68 1016.5
20260507024247 67 314 1.0 4.0 0.00 0.00 0.00 67 1016.3
20260507022744 67 277 1.0 4.0 0.00 0.00 0.00 67 1016.1
20260507021243 69 267 2.0 4.0 0.00 0.00 0.00 65 1015.9
20260507015742 70 262 2.0 4.0 0.00 0.00 0.00 64 1015.9
20260507014243 71 326 2.0 7.0 0.00 0.00 0.00 62 1015.6
20260507012742 72 269 2.0 7.0 0.00 0.00 0.00 60 1015.5
20260507011243 73 267 1.0 6.0 0.00 0.00 0.00 59 1015.5
20260507005743 74 300 2.0 8.0 0.00 0.00 0.00 58 1015.5
20260507004240 74 283 2.0 7.0 0.00 0.00 0.00 57 1015.4
20260507002734 76 286 2.0 6.0 0.00 0.00 0.00 55 1015.3
20260507001235 76 290 2.0 7.0 0.00 0.00 0.00 52 1015.2
20260506235734 77 301 2.0 6.0 0.00 0.00 0.00 52 1015.2
20260506234232 77 247 3.0 7.0 0.00 0.00 0.00 51 1015.2
20260506233420 78 338 2.0 6.0 0.00 0.00 0.00 49 1015.2
20260506231230 77 287 2.0 9.0 0.00 0.00 0.00 49 1015.2
20260506225730 78 291 2.0 8.0 0.00 0.00 0.00 48 1015.5
20260506224230 78 215 2.0 7.0 0.00 0.00 0.00 48 1015.6
20260506223421 78 336 2.0 7.0 0.00 0.00 0.00 49 1015.8
20260506221230 77 313 3.0 8.0 0.00 0.00 0.00 50 1015.9
20260506215730 77 264 2.0 6.0 0.00 0.00 0.00 50 1016.1
20260506214229 78 277 2.0 8.0 0.00 0.00 0.00 50 1016.3
20260506212730 78 229 2.0 7.0 0.00 0.00 0.00 53 1016.4
20260506211229 77 170 2.0 6.0 0.00 0.00 0.00 55 1016.6
20260506205729 77 328 2.0 7.0 0.00 0.00 0.00 54 1016.7
20260506204229 76 281 2.0 7.0 0.00 0.00 0.00 57 1016.8
20260506202729 77 287 2.0 6.0 0.00 0.00 0.00 55 1016.8
20260506201229 76 249 2.0 7.0 0.00 0.00 0.00 59 1017.0
20260506195727 76 264 3.0 7.0 0.00 0.00 0.00 57 1017.1
20260506194226 76 160 2.0 10.0 0.00 0.00 0.00 57 1017.1
20260506192726 76 134 3.0 7.0 0.00 0.00 0.00 56 1017.3
20260506191915 75 240 3.0 9.0 0.00 0.00 0.00 59 1017.5
20260506185725 74 156 3.0 7.0 0.00 0.00 0.00 59 1017.6
20260506184923 72 22 2.0 6.0 0.00 0.00 0.00 54 1017.7
20260506182726 73 256 1.0 4.0 0.00 0.00 0.00 53 1017.8
20260506181227 71 214 2.0 6.0 0.00 0.00 0.00 59 1017.9
20260506175724 71 219 1.0 6.0 0.00 0.00 0.00 58 1018.0
20260506174222 69 152 1.0 5.0 0.00 0.00 0.00 64 1017.9
20260506172719 67 311 1.0 5.0 0.00 0.00 0.00 65 1018.0
20260506171220 66 160 2.0 8.0 0.00 0.00 0.00 68 1018.0
20260506165719 65 238 1.0 3.0 0.00 0.00 0.00 71 1018.1
20260506164217 63 220 1.0 5.0 0.00 0.00 0.00 75 1018.1
20260506163409 62 157 1.0 5.0 0.00 0.00 0.00 77 1018.2
20260506161214 61 224 0.0 0.0 0.00 0.00 0.00 78 1018.3
20260506155707 61 256 1.0 5.0 0.00 0.00 0.00 79 1018.3
20260506154208 60 153 1.0 6.0 0.00 0.00 0.00 81 1018.3
20260506152708 60 159 1.0 6.0 0.00 0.00 0.00 84 1018.3
20260506151207 58 166 1.0 6.0 0.00 0.00 0.00 87 1018.2
20260506150410 55 171 0.0 2.0 0.00 0.00 0.00 87 1018.3
20260506144859 54 171 0.0 0.0 0.00 0.00 0.00 87 1018.2
20260506142703 53 171 0.0 2.0 0.00 0.00 0.00 87 1018.1
20260506141202 52 171 0.0 0.0 0.00 0.00 0.00 86 1018.2
20260506135703 51 171 0.0 0.0 0.00 0.01 0.00 85 1018.0
20260506134900 51 171 0.0 0.0 0.00 0.01 0.00 85 1017.9